Regional Weather Roundup
Issued by NWS

Home | Current Version | Previous Version | Graphics & Text | Print | Product List | Glossary On
Versions: 1 2 3 4 5 6 7 8 9 10 11 12 13 14 15 16 17 18 19 20 21 22 23 24 25 26 27 28 29 30 31 32 33 34 35 36 37 38 39 40 41 42 43 44 45 46 47 48 49 50
000
ASUS45 KTFX 301419
RWRMT
MONTANA HOURLY WEATHER ROUNDUP
NATIONAL WEATHER SERVICE GREAT FALLS MT
819 AM MDT TUE SEP 30 2014

NOTE: "FAIR" INDICATES FEW OR NO CLOUDS BELOW 12000 FEET WITH NO
SIGNIFICANT WEATHER AND/OR OBSTRUCTIONS TO VISIBILITY.

* THESE STATIONS ARE NOT UNDER NWS QUALITY CONTROL. THEY DO NOT
   REPORT WEATHER SUCH AS PRECIPITATION OR FOG.

MTZ001>007-043-301500-
WEST OF THE DIVIDE
CITY           SKY/WX    TMP DP  RH WIND       PRES   REMARKS
KALISPELL      CLOUDY    54  46  74 SW13      29.73R
MISSOULA       LGT RAIN  50  50 100 NW3       29.82R
BUTTE          CLOUDY    46  39  77 CALM      29.84F
MULLAN PASS    LGT RAIN  39  39 100 W10G20    29.85R VSB M1/4 WCI  32
* ESSEX        N/A       50  47  89 N/A        N/A
* LINCOLN      N/A       47  45  93 S2         N/A
* LOOKOUT PASS N/A       45  43  93 SE6G12     N/A
* POLSON       N/A       48  48 100 SE2        N/A
* RONAN APT    CLOUDY    52  48  86 N/A        N/A
* SEELEY LAKE  N/A       46  45  96 N/A        N/A
* THOMP F APT  CLOUDY    40  40 100 N/A        N/A
* YAAK HILL    N/A       51  47  86 E1         N/A
$$

MTZ008-052>055-301500-
SOUTHWEST MONTANA
CITY           SKY/WX    TMP DP  RH WIND       PRES   REMARKS
BOZEMAN        CLOUDY    48  45  89 SE9       29.82S
DILLON         CLOUDY    45  39  80 S10       29.84F
W YELLOWSTONE  CLOUDY    39  39 100 S7        29.90S WCI  34
* THREE FORKS  CLOUDY    52  30  43 N/A        N/A
* BOULDER HILL N/A       46  34  63 S6         N/A
* RAYNOLDS PAS N/A       40  18  41 SE5        N/A   WCI  36
* WHITEHALL    N/A       50  42  74 W9G16      N/A
* WISE RIVER   N/A       45  38  77 NW5        N/A
$$

MTZ009>010-012-014-046-048-049-054-301500-
EAST SLOPES AND CENTRAL MONTANA
CITY           SKY/WX    TMP DP  RH WIND       PRES   REMARKS
CUT BANK       CLOUDY    54  41  62 W17       29.65S
GREAT FALLS    CLOUDY    54  45  72 SW12      29.68S
HELENA         CLOUDY    54  45  72 E5        29.78R
MALMSTROM AFB  CLOUDY    54  45  72 SW16      29.69S
* CONRAD       CLOUDY    57  46  67 W15G21     N/A
* DEARBORN     N/A       55  45  69 E1G8       N/A
* EAST GLACIER N/A       49  41  74 W16        N/A
* MONARCH      N/A       49  35  59 W8G13      N/A
* PENDROY      N/A       51  38  61 NW9        N/A
* ROGERS PASS  N/A       45  42  89 SE9G19     N/A
* SAINT MARY   N/A       52  40  64 S7G15      N/A
* SWEET GRASS  N/A       54  44  69 W16G22     N/A
* WHITE SULPH  N/A       48  42  80 SW3        N/A
$$

MTZ011-013-016-021-035-040-045-047-050-051-301500-
NORTH CENTRAL MONTANA
CITY           SKY/WX    TMP DP  RH WIND       PRES   REMARKS
LEWISTOWN      CLOUDY    52  43  72 NW5       29.70F
* FORT BENTON  CLOUDY    57  46  67 SW7       29.67S
* CHESTER      N/A       51  47  86 N/A        N/A
* DENTON       N/A       53  42  66 W9         N/A
* GEYSER       N/A       51  41  69 W9         N/A
* JUDITH GAP   N/A       47  43  86 SW8        N/A
* LOMA         N/A       55  47  75 S2         N/A
$$

MTZ017>020-022>027-061-062-301500-
NORTHEAST MONTANA
CITY           SKY/WX    TMP DP  RH WIND       PRES   REMARKS
GLASGOW        CLOUDY    52  48  86 SE10      29.64S
GLENDIVE       CLOUDY    52  52 100 E7        29.66R VSB 1/2
JORDAN         PTSUNNY   52  52 100 SE3       29.65S
SIDNEY         CLOUDY    54  52  93 E7        29.68R
WOLF POINT     CLOUDY    54  52  93 CALM      29.66F
* BEAVER HILL  N/A       51  50  96 N/A        N/A
* CIRCLE       N/A       53  51  93 N/A        N/A
* LINDSAY DVD  N/A       50  50 100 NW3        N/A
* NAVAJO       N/A       50  50 100 S9         N/A
$$

MTZ028>042-056>058-301500-
SOUTHCENTRAL AND SOUTHEAST MONTANA
CITY           SKY/WX    TMP DP  RH WIND       PRES   REMARKS
BAKER          LGT RAIN  52  50  93 E5        29.65F
BILLINGS       PTSUNNY   48  43  83 SW10      29.72S
LIVINGSTON     CLOUDY    54  39  57 W14       29.78S
MILES CITY     CLOUDY    52  48  86 CALM      29.65S
* LAUREL APT   PTCLDY    54  41  62 W14G23     N/A
* ROUNDUP APT  PTSUNNY   45  39  80 N/A        N/A
* ALZADA       N/A       52  51  96 NW8        N/A
* HYSHAM       N/A       46  44  93 W8         N/A
* LAME DEER    N/A       48  48 100 W11G16     N/A
* REED POINT   N/A       54  40  59 W11        N/A
* ROSCOE HILL  N/A       48  29  48 W4         N/A
$$

REGIONAL REPORTS...DAKOTAS
CITY           SKY/WX    TMP DP  RH WIND       PRES   REMARKS
WILLISTON      LGT RAIN  54  52  93 E3        29.69F
DICKINSON      RAIN      52  52 100 E12       29.63F
BEACH          N/A       50  50 100 E7        29.67F
CROSBY         CLOUDY    52  52 100 SE7       29.72F
TIOGA          FOG       50  50 100 SE9       29.74F VSB 1 1/4
WATFORD CITY   FOG       50  50 100 E8        29.67F
BISMARCK       CLOUDY    54  50  86 E15       29.72F
GRAND FORKS    CLOUDY    45  43  93 SE13      29.94F
FARGO          CLOUDY    46  43  89 SE14      29.92F
BUFFALO SD     PTSUNNY   54  54 100 NE13      29.52F
RAPID CITY     LGT RAIN  54  50  86 NE14      29.43F
$$

REGIONAL REPORTS...WYOMING/IDAHO/WASHINGTON
CITY           SKY/WX    TMP DP  RH WIND       PRES   REMARKS
GILLETTE       LGT RAIN  52  48  86 W12       29.67S
SHERIDAN       CLOUDY    50  39  66 W12       29.70R
CODY           CLOUDY    54  37  53 W7G26     29.77R
YELLOWSTONE LA CLOUDY    37  36  96 W5        29.94S WCI  33
SALMON         CLOUDY    48  46  93 CALM      29.87R
MULLAN PASS    LGT RAIN  39  39 100 W10G20    29.85S VSB M1/4 WCI  32
SAND POINT     CLOUDY    52  52 100 SW3       29.79R
SPOKANE        PTSUNNY   48  41  77 SW14      29.84R
$$

REGIONAL REPORTS...ALBERTA
CITY           SKY/WX    TMP DP  RH WIND       PRES   REMARKS
CALGARY        CLOUDY    50  43  77 N20G28    29.67R
LETHBRIDGE     PTSUNNY   57  45  64 W20G26    29.62R
MEDICINE HAT   PTSUNNY   50  46  86 SW8       29.55R
EDMONTON       LGT RAIN  50  46  86 NW12G18   29.64R
WATERTON GATE  N/A       54  39  57 SW13G18    N/A
CARDSTON       N/A       52  41  66 SW5        N/A
MILK RIVER     N/A       55  43  64 W15G21     N/A
$$

REGIONAL REPORTS...SASKATCHEWAN
CITY           SKY/WX    TMP DP  RH WIND       PRES   REMARKS
SWIFT CURRENT  PTCLDY    50  48  93 S17G24    29.54F
MOOSE JAW      CLOUDY    54  50  86 SE13      29.64F
REGINA         FOG       50  50 100 SE15      29.67F VSB 2
VAL MARIE      N/A       50  48  93 S15        N/A
ASSINIBOIA     N/A       50  48  93 S10G17     N/A
CORONACH       N/A       50  50 100 SE8        N/A

$$



USA.gov is the U.S. government's official web portal to all federal, state and local government web resources and services.